Time,TemperatureF,DewpointF,PressureIn,WindDirection,WindDirectionDegrees,WindSpeedMPH,WindSpeedGustMPH,Humidity,HourlyPrecipIn,Conditions,Clouds,dailyrainin,SolarRadiationWatts/m^2,SoftwareType,DateUTC
2013-03-22 00:02:00,36.4,34.6,29.93,NE,46,15.0,15.0,93,0.07,RA,,0.00,0.0,WeatherDisplay:10.37,2013-03-22 00:02:00,
2013-03-22 00:07:00,36.3,34.5,29.93,ESE,108,16.1,16.1,93,0.07,RA,,0.01,0.0,WeatherDisplay:10.37,2013-03-22 00:07:00,
2013-03-22 00:12:00,36.2,34.4,29.93,East,91,11.5,11.5,93,0.06,RA,,0.01,0.0,WeatherDisplay:10.37,2013-03-22 00:12:00,
2013-03-22 00:17:00,36.1,34.3,29.93,East,101,6.9,6.9,93,0.06,RA,,0.02,0.0,WeatherDisplay:10.37,2013-03-22 00:17:00,
2013-03-22 00:22:00,36.0,34.2,29.92,East,98,10.4,10.4,93,0.06,RA,,0.02,0.0,WeatherDisplay:10.37,2013-03-22 00:22:00,
2013-03-22 00:27:00,36.0,34.2,29.92,East,95,10.4,10.4,93,0.06,,,0.02,0.0,WeatherDisplay:10.37,2013-03-22 00:27:00,
2013-03-22 00:32:00,36.0,34.2,29.92,East,92,16.1,16.1,93,0.06,RA,,0.02,0.0,WeatherDisplay:10.37,2013-03-22 00:32:00,
2013-03-22 00:37:00,36.0,34.4,29.92,East,89,11.5,11.5,94,0.05,RA,,0.02,0.0,WeatherDisplay:10.37,2013-03-22 00:37:00,
2013-03-22 00:42:00,36.0,34.4,29.92,East,84,7.0,7.0,94,0.05,CLR,,0.02,0.0,WeatherDisplay:10.37,2013-03-22 00:42:00,
2013-03-22 00:47:00,36.1,34.5,29.92,ESE,105,13.8,13.8,94,0.04,CLR,,0.02,0.0,WeatherDisplay:10.37,2013-03-22 00:47:00,
2013-03-22 00:52:00,36.1,34.5,29.92,ENE,78,10.4,10.4,94,0.04,RA,,0.03,0.0,WeatherDisplay:10.37,2013-03-22 00:52:00,
2013-03-22 00:57:00,36.1,34.5,29.91,ESE,112,14.0,14.0,94,0.04,RA,,0.03,0.0,WeatherDisplay:10.37,2013-03-22 00:57:00,
2013-03-22 01:02:00,36.1,34.5,29.92,East,84,9.2,9.2,94,0.04,RA,,0.04,0.0,WeatherDisplay:10.37,2013-03-22 01:02:00,
2013-03-22 01:07:00,36.1,34.5,29.92,East,99,11.5,11.5,94,0.03,RA,,0.04,0.0,WeatherDisplay:10.37,2013-03-22 01:07:00,
2013-03-22 01:12:00,36.1,34.5,29.92,ESE,104,6.0,6.0,94,0.04,RA,,0.05,0.0,WeatherDisplay:10.37,2013-03-22 01:12:00,
2013-03-22 01:17:00,36.1,34.5,29.92,ESE,102,8.0,8.0,94,0.03,RA,,0.05,0.0,WeatherDisplay:10.37,2013-03-22 01:17:00,
2013-03-22 01:22:00,36.1,34.5,29.92,SE,130,11.5,11.5,94,0.03,,,0.05,0.0,WeatherDisplay:10.37,2013-03-22 01:22:00,
2013-03-22 01:27:00,36.1,34.5,29.91,East,87,10.4,10.4,94,0.04,RA,,0.06,0.0,WeatherDisplay:10.37,2013-03-22 01:27:00,
2013-03-22 01:32:00,36.0,34.4,29.92,East,96,10.4,10.4,94,0.03,RA,,0.06,0.0,WeatherDisplay:10.37,2013-03-22 01:32:00,
2013-03-22 01:37:00,36.0,34.4,29.91,ESE,103,6.9,6.9,94,0.04,RA,,0.06,0.0,WeatherDisplay:10.37,2013-03-22 01:37:00,
2013-03-22 01:43:00,36.0,34.4,29.91,East,92,9.2,9.2,94,0.05,RA,,0.07,0.0,WeatherDisplay:10.37,2013-03-22 01:43:00,
2013-03-22 01:47:00,36.0,34.4,29.91,ESE,105,6.9,6.9,94,0.05,RA,,0.07,0.0,WeatherDisplay:10.37,2013-03-22 01:47:00,
2013-03-22 01:53:00,36.0,34.4,29.91,ESE,118,11.5,11.5,94,0.05,RA,,0.08,0.0,WeatherDisplay:10.37,2013-03-22 01:53:00,
2013-03-22 01:57:00,36.0,34.4,29.90,East,97,13.8,13.8,94,0.06,RA,,0.09,0.0,WeatherDisplay:10.37,2013-03-22 01:57:00,
2013-03-22 02:03:00,36.0,34.4,29.90,ESE,115,12.0,12.0,94,0.05,RA,,0.09,0.0,WeatherDisplay:10.37,2013-03-22 02:03:00,
2013-03-22 02:07:00,36.0,34.4,29.90,East,80,11.5,11.5,94,0.06,RA,,0.09,0.0,WeatherDisplay:10.37,2013-03-22 02:07:00,
2013-03-22 02:12:00,36.0,34.4,29.90,East,98,11.5,11.5,94,0.06,RA,,0.10,0.0,WeatherDisplay:10.37,2013-03-22 02:12:00,
2013-03-22 02:17:00,36.0,34.4,29.89,ENE,76,9.2,9.2,94,0.06,RA,,0.10,0.0,WeatherDisplay:10.37,2013-03-22 02:17:00,
2013-03-22 02:22:00,36.0,34.4,29.89,East,92,9.0,9.0,94,0.06,RA,,0.11,0.0,WeatherDisplay:10.37,2013-03-22 02:22:00,
2013-03-22 02:27:00,35.9,34.3,29.89,East,96,11.5,11.5,94,0.06,RA,,0.12,0.0,WeatherDisplay:10.37,2013-03-22 02:27:00,
2013-03-22 02:32:00,35.9,34.6,29.89,ESE,109,11.5,11.5,95,0.06,RA,,0.12,0.0,WeatherDisplay:10.37,2013-03-22 02:32:00,
2013-03-22 02:37:00,36.0,34.7,29.88,East,79,10.4,10.4,95,0.06,,,0.12,0.0,WeatherDisplay:10.37,2013-03-22 02:37:00,
2013-03-22 02:43:00,35.9,34.6,29.88,East,91,9.2,9.2,95,0.05,CLR,,0.12,0.0,WeatherDisplay:10.37,2013-03-22 02:43:00,
2013-03-22 02:48:00,35.9,34.6,29.88,ESE,107,12.0,12.0,95,0.06,RA,,0.13,0.0,WeatherDisplay:10.37,2013-03-22 02:48:00,
2013-03-22 02:53:00,35.9,34.6,29.89,East,82,10.4,10.4,95,0.05,RA,,0.13,0.0,WeatherDisplay:10.37,2013-03-22 02:53:00,
2013-03-22 02:58:00,35.9,34.6,29.88,ESE,115,8.1,8.1,95,0.05,RA,,0.13,0.0,WeatherDisplay:10.37,2013-03-22 02:58:00,
2013-03-22 03:03:00,35.9,34.6,29.88,East,95,10.4,10.4,95,0.05,RA,,0.13,0.0,WeatherDisplay:10.37,2013-03-22 03:03:00,
2013-03-22 03:08:00,35.9,34.6,29.88,ESE,107,8.1,8.1,95,0.05,RA,,0.14,0.0,WeatherDisplay:10.37,2013-03-22 03:08:00,
2013-03-22 03:13:00,35.9,34.6,29.88,ESE,110,10.4,10.4,95,0.05,RA,,0.15,0.0,WeatherDisplay:10.37,2013-03-22 03:13:00,
2013-03-22 03:18:00,35.9,34.6,29.87,East,98,10.4,10.4,95,0.05,RA,,0.15,0.0,WeatherDisplay:10.37,2013-03-22 03:18:00,
2013-03-22 03:23:00,35.8,34.5,29.87,East,87,10.4,10.4,95,0.05,RA,,0.16,0.0,WeatherDisplay:10.37,2013-03-22 03:23:00,
2013-03-22 03:28:00,35.9,34.6,29.87,ESE,107,9.2,9.2,95,0.04,RA,,0.16,0.0,WeatherDisplay:10.37,2013-03-22 03:28:00,
2013-03-22 03:33:00,35.8,34.5,29.87,East,83,7.0,7.0,95,0.05,RA,,0.17,0.0,WeatherDisplay:10.37,2013-03-22 03:33:00,
2013-03-22 03:38:00,35.8,34.5,29.87,East,90,12.7,12.7,95,0.05,RA,,0.17,0.0,WeatherDisplay:10.37,2013-03-22 03:38:00,
2013-03-22 03:43:00,35.8,34.5,29.87,ENE,70,11.5,11.5,95,0.06,RA,,0.17,0.0,WeatherDisplay:10.37,2013-03-22 03:43:00,
2013-03-22 03:48:00,35.8,34.5,29.86,ESE,105,11.5,11.5,95,0.05,RA,,0.17,0.0,WeatherDisplay:10.37,2013-03-22 03:48:00,
2013-03-22 03:53:00,35.8,34.5,29.86,ESE,123,11.5,11.5,95,0.06,RA,,0.18,0.0,WeatherDisplay:10.37,2013-03-22 03:53:00,
2013-03-22 03:58:00,35.8,34.5,29.86,ENE,77,8.1,8.1,95,0.05,RA,,0.18,0.0,WeatherDisplay:10.37,2013-03-22 03:58:00,
2013-03-22 04:00:00,35.7,34.4,29.86,East,92,13.8,13.8,95,0.05,RA,,0.18,0.0,WeatherDisplay:10.37,2013-03-22 04:00:00,
2013-03-22 04:01:00,35.7,34.4,29.86,East,82,10.4,10.4,95,0.05,RA,,0.18,0.0,WeatherDisplay:10.37,2013-03-22 04:01:00,
2013-03-22 04:06:00,35.7,34.4,29.86,ESE,111,12.7,12.7,95,0.05,CLR,,0.18,0.0,WeatherDisplay:10.37,2013-03-22 04:06:00,
2013-03-22 04:12:00,35.7,34.4,29.86,East,94,11.5,11.5,95,0.05,RA,,0.19,0.0,WeatherDisplay:10.37,2013-03-22 04:12:00,
2013-03-22 04:17:00,35.7,34.4,29.86,East,90,11.5,11.5,95,0.04,RA,,0.19,0.0,WeatherDisplay:10.37,2013-03-22 04:17:00,
2013-03-22 04:22:00,35.7,34.4,29.86,ESE,117,11.5,11.5,95,0.05,RA,,0.20,0.0,WeatherDisplay:10.37,2013-03-22 04:22:00,
2013-03-22 04:27:00,35.6,34.3,29.86,ENE,69,15.0,15.0,95,0.04,RA,,0.20,0.0,WeatherDisplay:10.37,2013-03-22 04:27:00,
2013-03-22 04:32:00,35.6,34.3,29.86,East,101,10.0,10.0,95,0.03,CLR,,0.20,0.0,WeatherDisplay:10.37,2013-03-22 04:32:00,
2013-03-22 04:37:00,35.5,34.2,29.87,ESE,118,11.5,11.5,95,0.04,RA,,0.20,0.0,WeatherDisplay:10.37,2013-03-22 04:37:00,
2013-03-22 04:42:00,35.5,34.2,29.87,ESE,102,15.0,15.0,95,0.03,RA,,0.20,0.0,WeatherDisplay:10.37,2013-03-22 04:42:00,
2013-03-22 04:47:00,35.5,34.2,29.87,East,101,15.0,15.0,95,0.04,RA,,0.21,0.0,WeatherDisplay:10.37,2013-03-22 04:47:00,
2013-03-22 04:52:00,35.4,34.1,29.87,ENE,76,13.8,13.8,95,0.04,RA,,0.21,0.0,WeatherDisplay:10.37,2013-03-22 04:52:00,
2013-03-22 04:57:00,35.4,34.1,29.87,East,94,12.7,12.7,95,0.03,CLR,,0.21,0.0,WeatherDisplay:10.37,2013-03-22 04:57:00,
2013-03-22 05:02:00,35.4,34.1,29.86,ENE,72,9.2,9.2,95,0.03,CLR,,0.21,0.0,WeatherDisplay:10.37,2013-03-22 05:02:00,
2013-03-22 05:07:00,35.3,34.0,29.86,East,100,11.5,11.5,95,0.04,RA,,0.22,0.0,WeatherDisplay:10.37,2013-03-22 05:07:00,
2013-03-22 05:12:00,35.3,34.0,29.86,East,101,11.5,11.5,95,0.03,RA,,0.22,0.0,WeatherDisplay:10.37,2013-03-22 05:12:00,
2013-03-22 05:17:00,35.3,34.0,29.86,East,94,12.7,12.7,95,0.03,CLR,,0.22,0.0,WeatherDisplay:10.37,2013-03-22 05:17:00,
2013-03-22 05:22:00,35.2,33.9,29.86,East,83,8.1,8.1,95,0.02,CLR,,0.22,0.0,WeatherDisplay:10.37,2013-03-22 05:22:00,
2013-03-22 05:27:00,35.2,33.9,29.86,NE,38,10.4,10.4,95,0.02,CLR,,0.22,0.0,WeatherDisplay:10.37,2013-03-22 05:27:00,
2013-03-22 05:32:00,35.2,33.9,29.86,East,92,15.0,15.0,95,0.02,CLR,,0.22,0.0,WeatherDisplay:10.37,2013-03-22 05:32:00,
2013-03-22 05:37:00,35.2,33.9,29.86,ESE,113,9.2,9.2,95,0.02,CLR,,0.22,0.0,WeatherDisplay:10.37,2013-03-22 05:37:00,
2013-03-22 05:42:00,35.1,33.8,29.86,East,87,13.8,13.8,95,0.02,RA,,0.23,0.0,WeatherDisplay:10.37,2013-03-22 05:42:00,
2013-03-22 05:47:00,35.1,33.8,29.86,ESE,114,11.5,11.5,95,0.02,RA,,0.23,0.0,WeatherDisplay:10.37,2013-03-22 05:47:00,
2013-03-22 05:52:00,35.1,33.8,29.86,East,90,11.5,11.5,95,0.02,CLR,,0.23,0.0,WeatherDisplay:10.37,2013-03-22 05:52:00,
2013-03-22 05:57:00,35.0,33.4,29.86,East,81,16.1,16.1,94,0.02,CLR,,0.23,0.0,WeatherDisplay:10.37,2013-03-22 05:57:00,
2013-03-22 06:02:00,35.0,33.4,29.86,ENE,76,11.5,11.5,94,0.02,OVC,,0.23,0.0,WeatherDisplay:10.37,2013-03-22 06:02:00,
2013-03-22 06:07:00,35.0,33.4,29.85,ENE,78,12.7,12.7,94,0.01,OVC,,0.23,0.0,WeatherDisplay:10.37,2013-03-22 06:07:00,
2013-03-22 06:12:00,35.0,33.4,29.85,ESE,115,10.4,10.4,94,0.02,RA,,0.24,0.0,WeatherDisplay:10.37,2013-03-22 06:12:00,
2013-03-22 06:17:00,34.9,33.3,29.85,ENE,76,13.8,13.8,94,0.02,RA,,0.24,0.0,WeatherDisplay:10.37,2013-03-22 06:17:00,
2013-03-22 06:22:00,34.9,33.3,29.84,East,96,15.0,15.0,94,0.02,BKN,,0.24,5.0,WeatherDisplay:10.37,2013-03-22 06:22:00,
2013-03-22 06:27:00,34.9,33.3,29.85,East,84,12.7,12.7,94,0.02,BKN,,0.24,5.0,WeatherDisplay:10.37,2013-03-22 06:27:00,
2013-03-22 06:32:00,34.9,33.3,29.85,East,80,10.4,10.4,94,0.02,BKN,,0.24,7.0,WeatherDisplay:10.37,2013-03-22 06:32:00,
2013-03-22 06:37:00,35.0,33.4,29.85,East,81,16.1,16.1,94,0.02,BKN,,0.24,9.0,WeatherDisplay:10.37,2013-03-22 06:37:00,
2013-03-22 06:43:00,35.0,33.2,29.85,East,88,15.0,15.0,93,0.01,BKN,,0.24,11.0,WeatherDisplay:10.37,2013-03-22 06:43:00,
2013-03-22 06:48:00,35.0,33.2,29.85,East,89,11.5,11.5,93,0.01,BKN,,0.24,11.0,WeatherDisplay:10.37,2013-03-22 06:48:00,
2013-03-22 06:53:00,35.0,33.2,29.85,ESE,118,12.7,12.7,93,0.01,BKN,,0.24,11.0,WeatherDisplay:10.37,2013-03-22 06:53:00,
2013-03-22 06:58:00,35.1,33.3,29.85,East,82,12.7,12.7,93,0.01,BKN,,0.24,12.0,WeatherDisplay:10.37,2013-03-22 06:58:00,
2013-03-22 07:03:00,35.1,33.3,29.85,ESE,104,6.9,6.9,93,0.01,BKN,,0.24,14.0,WeatherDisplay:10.37,2013-03-22 07:03:00,
2013-03-22 07:08:00,35.2,33.1,29.85,NE,41,13.8,13.8,92,0.01,BKN,,0.24,16.0,WeatherDisplay:10.37,2013-03-22 07:08:00,
2013-03-22 07:13:00,35.2,33.1,29.85,ENE,78,13.8,13.8,92,0.00,BKN,,0.24,18.0,WeatherDisplay:10.37,2013-03-22 07:13:00,
2013-03-22 07:18:00,35.3,33.2,29.84,East,89,16.1,16.1,92,0.00,BKN,,0.24,28.0,WeatherDisplay:10.37,2013-03-22 07:18:00,
2013-03-22 07:23:00,35.3,32.9,29.84,East,95,12.7,12.7,91,0.00,BKN,,0.24,32.0,WeatherDisplay:10.37,2013-03-22 07:23:00,
2013-03-22 07:28:00,35.5,33.1,29.84,ESE,103,17.0,17.0,91,0.00,BKN,,0.24,37.0,WeatherDisplay:10.37,2013-03-22 07:28:00,
2013-03-22 07:33:00,35.6,33.2,29.85,East,85,11.5,11.5,91,0.00,BKN,,0.24,33.0,WeatherDisplay:10.37,2013-03-22 07:33:00,
2013-03-22 07:38:00,35.7,33.3,29.84,East,87,12.7,12.7,91,0.00,BKN,,0.24,30.0,WeatherDisplay:10.37,2013-03-22 07:38:00,
2013-03-22 07:43:00,35.7,33.1,29.85,ESE,103,12.7,12.7,90,0.00,BKN,,0.24,32.0,WeatherDisplay:10.37,2013-03-22 07:43:00,
2013-03-22 07:48:00,35.9,33.3,29.84,East,91,11.5,11.5,90,0.00,BKN,,0.24,44.0,WeatherDisplay:10.37,2013-03-22 07:48:00,
2013-03-22 07:53:00,35.9,33.3,29.84,ENE,58,15.0,15.0,90,0.00,BKN,,0.24,65.0,WeatherDisplay:10.37,2013-03-22 07:53:00,
2013-03-22 07:58:00,36.0,33.1,29.84,East,83,13.0,13.0,89,0.00,BKN,,0.24,62.0,WeatherDisplay:10.37,2013-03-22 07:58:00,
2013-03-22 08:03:00,36.2,33.3,29.85,East,80,9.2,9.2,89,0.00,BKN,,0.24,42.0,WeatherDisplay:10.37,2013-03-22 08:03:00,
2013-03-22 08:08:00,36.3,33.4,29.85,ENE,67,15.0,15.0,89,0.00,BKN,,0.24,77.0,WeatherDisplay:10.37,2013-03-22 08:08:00,
2013-03-22 08:13:00,36.5,33.3,29.83,East,94,16.0,16.0,88,0.00,BKN,,0.24,118.0,WeatherDisplay:10.37,2013-03-22 08:13:00,
2013-03-22 08:18:00,36.6,33.4,29.84,ESE,109,15.0,15.0,88,0.00,BKN,,0.24,114.0,WeatherDisplay:10.37,2013-03-22 08:18:00,
2013-03-22 08:23:00,36.8,33.3,29.83,ENE,73,11.5,11.5,87,0.00,BKN,,0.24,111.0,WeatherDisplay:10.37,2013-03-22 08:23:00,
2013-03-22 08:28:00,36.9,33.4,29.84,ESE,104,12.7,12.7,87,0.00,BKN,,0.24,95.0,WeatherDisplay:10.37,2013-03-22 08:28:00,
2013-03-22 08:33:00,36.9,33.4,29.83,East,87,12.7,12.7,87,0.00,BKN,,0.24,102.0,WeatherDisplay:10.37,2013-03-22 08:33:00,
2013-03-22 08:38:00,37.0,33.2,29.84,East,86,15.0,15.0,86,0.00,BKN,,0.24,84.0,WeatherDisplay:10.37,2013-03-22 08:38:00,
2013-03-22 08:43:00,37.1,33.3,29.84,East,90,10.4,10.4,86,0.00,BKN,,0.24,97.0,WeatherDisplay:10.37,2013-03-22 08:43:00,
2013-03-22 08:48:00,37.1,33.3,29.83,ESE,103,15.0,15.0,86,0.00,BKN,,0.24,120.0,WeatherDisplay:10.37,2013-03-22 08:48:00,
2013-03-22 08:53:00,37.2,33.4,29.84,East,80,10.4,10.4,86,0.00,BKN,,0.24,102.0,WeatherDisplay:10.37,2013-03-22 08:53:00,
2013-03-22 08:58:00,37.3,33.5,29.83,East,89,14.0,14.0,86,0.00,BKN,,0.24,118.0,WeatherDisplay:10.37,2013-03-22 08:58:00,
2013-03-22 09:03:00,37.4,33.6,29.84,East,94,11.5,11.5,86,0.00,BKN,,0.24,116.0,WeatherDisplay:10.37,2013-03-22 09:03:00,
2013-03-22 09:08:00,37.5,33.7,29.83,ENE,72,11.5,11.5,86,0.00,BKN,,0.24,134.0,WeatherDisplay:10.37,2013-03-22 09:08:00,
2013-03-22 09:13:00,37.6,33.8,29.83,ESE,113,5.8,5.8,86,0.00,BKN,,0.24,118.0,WeatherDisplay:10.37,2013-03-22 09:13:00,
2013-03-22 09:18:00,37.7,33.6,29.83,ENE,78,10.4,10.4,85,0.00,BKN,,0.24,134.0,WeatherDisplay:10.37,2013-03-22 09:18:00,
2013-03-22 09:23:00,37.8,33.7,29.83,ENE,68,15.0,15.0,85,0.00,BKN,,0.24,160.0,WeatherDisplay:10.37,2013-03-22 09:23:00,
2013-03-22 09:28:00,37.9,33.8,29.83,East,82,12.0,12.0,85,0.00,BKN,,0.24,169.0,WeatherDisplay:10.37,2013-03-22 09:28:00,
2013-03-22 09:33:00,38.0,33.6,29.82,ENE,67,19.6,19.6,84,0.00,BKN,,0.24,156.0,WeatherDisplay:10.37,2013-03-22 09:33:00,
2013-03-22 09:38:00,38.2,33.8,29.82,East,87,11.5,11.5,84,0.00,BKN,,0.24,163.0,WeatherDisplay:10.37,2013-03-22 09:38:00,
2013-03-22 09:43:00,38.2,33.8,29.82,ENE,72,16.1,16.1,84,0.00,BKN,,0.24,183.0,WeatherDisplay:10.37,2013-03-22 09:43:00,
2013-03-22 09:48:00,38.3,33.9,29.81,ENE,70,15.0,15.0,84,0.00,BKN,,0.24,225.0,WeatherDisplay:10.37,2013-03-22 09:48:00,
2013-03-22 09:53:00,38.4,34.0,29.80,East,83,15.0,15.0,84,0.00,BKN,,0.24,243.0,WeatherDisplay:10.37,2013-03-22 09:53:00,
2013-03-22 09:58:00,38.6,34.2,29.80,East,86,11.5,11.5,84,0.00,BKN,,0.24,244.0,WeatherDisplay:10.37,2013-03-22 09:58:00,
2013-03-22 10:03:00,38.7,34.3,29.80,NNE,32,25.3,25.3,84,0.00,BKN,,0.24,239.0,WeatherDisplay:10.37,2013-03-22 10:03:00,
2013-03-22 10:08:00,38.9,34.5,29.80,ESE,107,18.4,18.4,84,0.00,BKN,,0.24,246.0,WeatherDisplay:10.37,2013-03-22 10:08:00,
2013-03-22 10:13:00,39.0,34.6,29.80,East,84,12.7,12.7,84,0.00,BKN,,0.24,265.0,WeatherDisplay:10.37,2013-03-22 10:13:00,
2013-03-22 10:18:00,39.2,34.8,29.81,East,88,18.4,18.4,84,0.00,SCT,,0.24,279.0,WeatherDisplay:10.37,2013-03-22 10:18:00,
2013-03-22 10:23:00,39.2,34.5,29.80,East,91,16.1,16.1,83,0.00,SCT,,0.24,260.0,WeatherDisplay:10.37,2013-03-22 10:23:00,
2013-03-22 10:28:00,39.4,34.7,29.80,East,86,12.7,12.7,83,0.00,SCT,,0.24,301.0,WeatherDisplay:10.37,2013-03-22 10:28:00,
2013-03-22 10:33:00,39.7,35.3,29.80,ENE,78,15.0,15.0,84,0.00,SCT,,0.24,367.0,WeatherDisplay:10.37,2013-03-22 10:33:00,
2013-03-22 10:38:00,40.0,35.3,29.80,East,89,16.1,16.1,83,0.00,SCT,,0.24,295.0,WeatherDisplay:10.37,2013-03-22 10:38:00,
2013-03-22 10:43:00,40.1,35.4,29.80,East,79,20.7,20.7,83,0.00,SCT,,0.24,313.0,WeatherDisplay:10.37,2013-03-22 10:43:00,
2013-03-22 10:48:00,40.2,35.1,29.79,ENE,63,24.2,24.2,82,0.00,SCT,,0.24,362.0,WeatherDisplay:10.37,2013-03-22 10:48:00,
2013-03-22 10:53:00,40.6,35.5,29.79,NE,54,13.8,13.8,82,0.00,SCT,,0.24,494.0,WeatherDisplay:10.37,2013-03-22 10:53:00,
2013-03-22 10:58:00,40.9,35.8,29.80,ENE,74,11.5,11.5,82,0.00,SCT,,0.24,390.0,WeatherDisplay:10.37,2013-03-22 10:58:00,
2013-03-22 11:03:00,41.6,36.2,29.79,East,81,17.3,17.3,81,0.00,CLR,,0.24,742.0,WeatherDisplay:10.37,2013-03-22 11:03:00,
2013-03-22 11:08:00,42.0,36.6,29.80,East,88,11.5,11.5,81,0.00,CLR,,0.24,387.0,WeatherDisplay:10.37,2013-03-22 11:08:00,
2013-03-22 11:13:00,42.5,37.1,29.79,ENE,75,12.7,12.7,81,0.00,CLR,,0.24,515.0,WeatherDisplay:10.37,2013-03-22 11:13:00,
2013-03-22 11:18:00,42.4,36.3,29.79,ESE,103,16.1,16.1,79,0.00,FEW,,0.24,315.0,WeatherDisplay:10.37,2013-03-22 11:18:00,
2013-03-22 11:23:00,42.1,36.1,29.78,East,92,21.9,21.9,79,0.00,SCT,,0.24,387.0,WeatherDisplay:10.37,2013-03-22 11:23:00,
2013-03-22 11:28:00,42.2,36.2,29.78,East,88,18.4,18.4,79,0.00,SCT,,0.24,550.0,WeatherDisplay:10.37,2013-03-22 11:28:00,
2013-03-22 11:33:00,41.8,35.8,29.78,ENE,71,17.3,17.3,79,0.00,SCT,,0.24,281.0,WeatherDisplay:10.37,2013-03-22 11:33:00,
2013-03-22 11:38:00,41.8,35.8,29.78,East,82,15.0,15.0,79,0.00,SCT,,0.24,417.0,WeatherDisplay:10.37,2013-03-22 11:38:00,
2013-03-22 11:43:00,42.1,36.1,29.78,ENE,67,16.1,16.1,79,0.00,FEW,,0.24,522.0,WeatherDisplay:10.37,2013-03-22 11:43:00,
2013-03-22 11:48:00,42.5,36.4,29.78,NE,39,16.1,16.1,79,0.00,FEW,,0.24,357.0,WeatherDisplay:10.37,2013-03-22 11:48:00,
2013-03-22 11:53:00,42.4,36.0,29.78,ENE,69,23.0,23.0,78,0.00,SCT,,0.24,425.0,WeatherDisplay:10.37,2013-03-22 11:53:00,
2013-03-22 11:58:00,42.2,35.8,29.78,East,101,19.6,19.6,78,0.00,SCT,,0.24,339.0,WeatherDisplay:10.37,2013-03-22 11:58:00,
2013-03-22 12:03:00,42.0,35.6,29.78,East,84,15.0,15.0,78,0.00,SCT,,0.24,315.0,WeatherDisplay:10.37,2013-03-22 12:03:00,
2013-03-22 12:08:00,41.8,35.4,29.78,East,90,21.9,21.9,78,0.00,SCT,,0.24,399.0,WeatherDisplay:10.37,2013-03-22 12:08:00,
2013-03-22 12:13:00,41.8,35.8,29.78,NE,46,13.8,13.8,79,0.00,SCT,,0.24,425.0,WeatherDisplay:10.37,2013-03-22 12:13:00,
2013-03-22 12:18:00,41.9,35.5,29.78,ENE,65,17.3,17.3,78,0.00,SCT,,0.24,348.0,WeatherDisplay:10.37,2013-03-22 12:18:00,
2013-03-22 12:23:00,41.9,35.5,29.78,East,94,19.6,19.6,78,0.00,SCT,,0.24,288.0,WeatherDisplay:10.37,2013-03-22 12:23:00,
2013-03-22 12:28:00,41.9,35.9,29.78,NE,51,13.8,13.8,79,0.00,BKN,,0.24,279.0,WeatherDisplay:10.37,2013-03-22 12:28:00,
2013-03-22 12:33:00,41.9,35.9,29.78,ESE,109,16.1,16.1,79,0.00,BKN,,0.24,290.0,WeatherDisplay:10.37,2013-03-22 12:33:00,
2013-03-22 12:38:00,41.9,35.9,29.78,East,83,15.0,15.0,79,0.00,BKN,,0.24,352.0,WeatherDisplay:10.37,2013-03-22 12:38:00,
2013-03-22 12:43:00,42.0,36.0,29.78,ENE,78,21.9,21.9,79,0.00,SCT,,0.24,367.0,WeatherDisplay:10.37,2013-03-22 12:43:00,
2013-03-22 12:48:00,42.3,35.9,29.77,ESE,103,12.7,12.7,78,0.00,SCT,,0.24,577.0,WeatherDisplay:10.37,2013-03-22 12:48:00,
2013-03-22 12:53:00,42.7,36.3,29.77,East,82,15.0,15.0,78,0.00,FEW,,0.24,392.0,WeatherDisplay:10.37,2013-03-22 12:53:00,
2013-03-22 12:58:00,42.7,36.0,29.77,ESE,107,15.0,15.0,77,0.00,SCT,,0.24,316.0,WeatherDisplay:10.37,2013-03-22 12:58:00,
2013-03-22 13:03:00,42.6,35.9,29.77,East,96,17.3,17.3,77,0.00,SCT,,0.24,276.0,WeatherDisplay:10.37,2013-03-22 13:03:00,
2013-03-22 13:08:00,42.3,35.9,29.77,ENE,65,19.6,19.6,78,0.00,BKN,,0.24,285.0,WeatherDisplay:10.37,2013-03-22 13:08:00,
2013-03-22 13:13:00,42.1,35.7,29.77,East,86,16.1,16.1,78,0.00,BKN,,0.24,243.0,WeatherDisplay:10.37,2013-03-22 13:13:00,
2013-03-22 13:18:00,42.0,35.6,29.76,ESE,106,19.6,19.6,78,0.00,BKN,,0.24,272.0,WeatherDisplay:10.37,2013-03-22 13:18:00,
2013-03-22 13:23:00,42.0,36.0,29.76,ESE,107,11.5,11.5,79,0.00,BKN,,0.24,283.0,WeatherDisplay:10.37,2013-03-22 13:23:00,
2013-03-22 13:29:00,41.9,35.9,29.76,East,87,19.6,19.6,79,0.00,BKN,,0.24,279.0,WeatherDisplay:10.37,2013-03-22 13:29:00,
2013-03-22 13:33:00,41.9,35.9,29.76,SE,126,19.6,19.6,79,0.00,BKN,,0.24,250.0,WeatherDisplay:10.37,2013-03-22 13:33:00,
2013-03-22 13:39:00,41.7,35.7,29.76,East,90,15.0,15.0,79,0.00,BKN,,0.24,204.0,WeatherDisplay:10.37,2013-03-22 13:39:00,
2013-03-22 13:43:00,41.7,35.7,29.76,East,92,13.0,13.0,79,0.00,BKN,,0.24,225.0,WeatherDisplay:10.37,2013-03-22 13:43:00,
2013-03-22 13:49:00,41.5,35.8,29.76,ENE,68,17.3,17.3,80,0.00,BKN,,0.24,214.0,WeatherDisplay:10.37,2013-03-22 13:49:00,
2013-03-22 13:53:00,41.3,35.6,29.76,East,82,17.3,17.3,80,0.00,BKN,,0.24,204.0,WeatherDisplay:10.37,2013-03-22 13:53:00,
2013-03-22 13:59:00,41.2,35.5,29.76,East,89,10.4,10.4,80,0.00,BKN,,0.24,204.0,WeatherDisplay:10.37,2013-03-22 13:59:00,
2013-03-22 14:03:00,41.2,35.5,29.76,East,98,11.5,11.5,80,0.00,BKN,,0.24,195.0,WeatherDisplay:10.37,2013-03-22 14:03:00,
2013-03-22 14:09:00,41.1,35.4,29.76,ENE,72,17.3,17.3,80,0.00,BKN,,0.24,179.0,WeatherDisplay:10.37,2013-03-22 14:09:00,
2013-03-22 14:13:00,41.0,35.3,29.77,ESE,117,12.7,12.7,80,0.00,BKN,,0.24,137.0,WeatherDisplay:10.37,2013-03-22 14:13:00,
2013-03-22 14:18:00,40.9,35.2,29.77,ESE,118,18.4,18.4,80,0.00,BKN,,0.24,123.0,WeatherDisplay:10.37,2013-03-22 14:18:00,
2013-03-22 14:23:00,40.8,35.1,29.77,NE,45,15.0,15.0,80,0.00,BKN,,0.24,125.0,WeatherDisplay:10.37,2013-03-22 14:23:00,
2013-03-22 14:28:00,40.7,35.3,29.77,East,99,16.1,16.1,81,0.00,BKN,,0.24,127.0,WeatherDisplay:10.37,2013-03-22 14:28:00,
2013-03-22 14:33:00,40.6,35.2,29.77,East,94,11.5,11.5,81,0.00,BKN,,0.24,135.0,WeatherDisplay:10.37,2013-03-22 14:33:00,
2013-03-22 14:38:00,40.7,35.3,29.77,ESE,102,15.0,15.0,81,0.00,BKN,,0.24,121.0,WeatherDisplay:10.37,2013-03-22 14:38:00,
2013-03-22 14:43:00,40.6,35.2,29.77,ENE,74,11.5,11.5,81,0.00,BKN,,0.24,98.0,WeatherDisplay:10.37,2013-03-22 14:43:00,
2013-03-22 14:49:00,40.7,35.6,29.77,ENE,76,10.4,10.4,82,0.00,BKN,,0.24,97.0,WeatherDisplay:10.37,2013-03-22 14:49:00,
2013-03-22 14:54:00,40.7,35.3,29.77,ESE,110,12.7,12.7,81,0.00,BKN,,0.24,90.0,WeatherDisplay:10.37,2013-03-22 14:54:00,
2013-03-22 14:59:00,40.5,35.1,29.77,NE,43,11.5,11.5,81,0.00,BKN,,0.24,62.0,WeatherDisplay:10.37,2013-03-22 14:59:00,
2013-03-22 15:04:00,40.4,35.3,29.76,East,84,13.8,13.8,82,0.00,BKN,,0.24,42.0,WeatherDisplay:10.37,2013-03-22 15:04:00,
2013-03-22 15:09:00,40.3,35.2,29.76,East,93,10.4,10.4,82,0.00,BKN,,0.24,33.0,WeatherDisplay:10.37,2013-03-22 15:09:00,
2013-03-22 15:14:00,40.2,35.1,29.76,ENE,70,17.3,17.3,82,0.00,BKN,,0.24,32.0,WeatherDisplay:10.37,2013-03-22 15:14:00,
2013-03-22 15:19:00,40.1,35.4,29.76,East,94,10.4,10.4,83,0.00,BKN,,0.24,30.0,WeatherDisplay:10.37,2013-03-22 15:19:00,
2013-03-22 15:24:00,39.8,35.4,29.75,East,79,17.3,17.3,84,0.00,BKN,,0.24,28.0,WeatherDisplay:10.37,2013-03-22 15:24:00,
2013-03-22 15:29:00,39.5,35.4,29.75,ENE,69,8.1,8.1,85,0.01,RA,,0.25,35.0,WeatherDisplay:10.37,2013-03-22 15:29:00,
2013-03-22 15:34:00,39.2,35.4,29.75,ENE,57,11.5,11.5,86,0.02,RA,,0.26,44.0,WeatherDisplay:10.37,2013-03-22 15:34:00,
2013-03-22 15:39:00,38.9,35.4,29.75,ESE,102,12.0,12.0,87,0.04,RA,,0.28,49.0,WeatherDisplay:10.37,2013-03-22 15:39:00,
2013-03-22 15:44:00,38.7,35.5,29.74,NNE,32,11.0,11.0,88,0.04,RA,,0.28,58.0,WeatherDisplay:10.37,2013-03-22 15:44:00,
2013-03-22 15:49:00,38.6,35.6,29.74,ESE,110,13.0,13.0,89,0.05,RA,,0.28,60.0,WeatherDisplay:10.37,2013-03-22 15:49:00,
2013-03-22 15:54:00,38.5,35.5,29.74,ENE,76,14.0,14.0,89,0.05,RA,,0.28,63.0,WeatherDisplay:10.37,2013-03-22 15:54:00,
2013-03-22 15:59:00,38.5,35.8,29.74,East,88,13.8,13.8,90,0.05,BKN,,0.28,58.0,WeatherDisplay:10.37,2013-03-22 15:59:00,
2013-03-22 16:04:00,38.4,35.7,29.74,ENE,78,13.0,13.0,90,0.05,BKN,,0.28,46.0,WeatherDisplay:10.37,2013-03-22 16:04:00,
2013-03-22 16:09:00,38.4,35.4,29.74,ENE,71,18.4,18.4,89,0.05,BKN,,0.28,39.0,WeatherDisplay:10.37,2013-03-22 16:09:00,
2013-03-22 16:14:00,38.3,35.3,29.74,ESE,120,13.0,13.0,89,0.05,BKN,,0.28,28.0,WeatherDisplay:10.37,2013-03-22 16:14:00,
2013-03-22 16:19:00,38.2,35.2,29.74,NNE,12,19.6,19.6,89,0.05,BKN,,0.28,28.0,WeatherDisplay:10.37,2013-03-22 16:19:00,
2013-03-22 16:24:00,38.2,35.2,29.74,ENE,74,16.1,16.1,89,0.05,BKN,,0.28,25.0,WeatherDisplay:10.37,2013-03-22 16:24:00,
2013-03-22 16:29:00,38.2,35.2,29.74,ENE,67,19.6,19.6,89,0.04,BKN,,0.28,21.0,WeatherDisplay:10.37,2013-03-22 16:29:00,
2013-03-22 16:34:00,38.3,35.1,29.75,East,79,12.7,12.7,88,0.02,BKN,,0.28,23.0,WeatherDisplay:10.37,2013-03-22 16:34:00,
2013-03-22 16:39:00,38.3,34.8,29.75,ENE,74,15.0,15.0,87,0.01,BKN,,0.28,23.0,WeatherDisplay:10.37,2013-03-22 16:39:00,
2013-03-22 16:44:00,38.4,34.9,29.75,NE,54,18.4,18.4,87,0.01,BKN,,0.28,16.0,WeatherDisplay:10.37,2013-03-22 16:44:00,
2013-03-22 16:49:00,38.4,34.6,29.76,ENE,74,12.7,12.7,86,0.00,BKN,,0.28,11.0,WeatherDisplay:10.37,2013-03-22 16:49:00,
2013-03-22 16:54:00,38.5,34.7,29.76,ENE,72,11.5,11.5,86,0.00,BKN,,0.28,11.0,WeatherDisplay:10.37,2013-03-22 16:54:00,
2013-03-22 16:59:00,38.5,34.7,29.77,SE,133,18.4,18.4,86,0.00,BKN,,0.28,9.0,WeatherDisplay:10.37,2013-03-22 16:59:00,
2013-03-22 17:04:00,38.6,34.8,29.78,ESE,105,15.0,15.0,86,0.00,BKN,,0.28,11.0,WeatherDisplay:10.37,2013-03-22 17:04:00,
2013-03-22 17:09:00,38.6,34.8,29.78,East,86,13.8,13.8,86,0.00,BKN,,0.28,12.0,WeatherDisplay:10.37,2013-03-22 17:09:00,
2013-03-22 17:14:00,38.6,34.8,29.77,ESE,103,11.5,11.5,86,0.00,BKN,,0.28,11.0,WeatherDisplay:10.37,2013-03-22 17:14:00,
2013-03-22 17:19:00,38.6,34.8,29.77,ENE,69,17.0,17.0,86,0.00,BKN,,0.28,11.0,WeatherDisplay:10.37,2013-03-22 17:19:00,
2013-03-22 17:24:00,38.5,34.7,29.76,ENE,76,11.5,11.5,86,0.00,BKN,,0.28,9.0,WeatherDisplay:10.37,2013-03-22 17:24:00,
2013-03-22 17:29:00,38.5,34.7,29.75,East,86,14.0,14.0,86,0.00,BKN,,0.28,9.0,WeatherDisplay:10.37,2013-03-22 17:29:00,
2013-03-22 17:34:00,38.4,34.9,29.75,ENE,72,15.0,15.0,87,0.00,BKN,,0.28,11.0,WeatherDisplay:10.37,2013-03-22 17:34:00,
2013-03-22 17:39:00,38.3,34.8,29.75,ENE,78,14.0,14.0,87,0.02,RA,,0.30,11.0,WeatherDisplay:10.37,2013-03-22 17:39:00,
2013-03-22 17:44:00,38.0,34.8,29.75,East,83,16.1,16.1,88,0.02,RA,,0.31,9.0,WeatherDisplay:10.37,2013-03-22 17:44:00,
2013-03-22 17:49:00,37.7,34.8,29.75,East,92,15.0,15.0,89,0.03,RA,,0.31,7.0,WeatherDisplay:10.37,2013-03-22 17:49:00,
2013-03-22 17:54:00,37.7,34.8,29.75,ENE,78,16.1,16.1,89,0.03,RA,,0.31,7.0,WeatherDisplay:10.37,2013-03-22 17:54:00,
2013-03-22 17:59:00,37.7,35.0,29.75,NNE,29,19.6,19.6,90,0.03,OVC,,0.31,0.0,WeatherDisplay:10.37,2013-03-22 17:59:00,
2013-03-22 18:04:00,37.7,35.0,29.75,ENE,77,11.5,11.5,90,0.03,OVC,,0.31,0.0,WeatherDisplay:10.37,2013-03-22 18:04:00,
2013-03-22 18:09:00,37.7,35.0,29.75,ESE,105,21.9,21.9,90,0.03,OVC,,0.31,0.0,WeatherDisplay:10.37,2013-03-22 18:09:00,
2013-03-22 18:14:00,37.8,35.1,29.75,East,88,17.3,17.3,90,0.03,OVC,,0.31,0.0,WeatherDisplay:10.37,2013-03-22 18:14:00,
2013-03-22 18:19:00,37.8,35.1,29.76,ESE,105,23.0,23.0,90,0.03,OVC,,0.31,0.0,WeatherDisplay:10.37,2013-03-22 18:19:00,
2013-03-22 18:24:00,37.9,35.2,29.76,East,86,15.0,15.0,90,0.03,OVC,,0.31,0.0,WeatherDisplay:10.37,2013-03-22 18:24:00,
2013-03-22 18:29:00,37.9,35.2,29.76,ESE,106,19.6,19.6,90,0.03,OVC,,0.31,0.0,WeatherDisplay:10.37,2013-03-22 18:29:00,
2013-03-22 18:34:00,37.9,34.9,29.76,ESE,102,19.0,19.0,89,0.03,OVC,,0.31,0.0,WeatherDisplay:10.37,2013-03-22 18:34:00,
2013-03-22 18:39:00,37.9,34.9,29.76,ENE,62,12.7,12.7,89,0.02,OVC,,0.31,0.0,WeatherDisplay:10.37,2013-03-22 18:39:00,
2013-03-22 18:44:00,38.0,35.0,29.76,ENE,73,11.5,11.5,89,0.02,RA,,0.32,0.0,WeatherDisplay:10.37,2013-03-22 18:44:00,
2013-03-22 18:49:00,37.9,35.2,29.77,ENE,65,13.0,13.0,90,0.01,RA,,0.32,0.0,WeatherDisplay:10.37,2013-03-22 18:49:00,
2013-03-22 18:54:00,38.0,35.3,29.78,East,94,15.0,15.0,90,0.01,CLR,,0.32,0.0,WeatherDisplay:10.37,2013-03-22 18:54:00,
2013-03-22 18:59:00,38.0,35.3,29.78,ENE,66,13.0,13.0,90,0.02,RA,,0.33,0.0,WeatherDisplay:10.37,2013-03-22 18:59:00,
2013-03-22 19:04:00,38.0,35.3,29.78,East,79,18.4,18.4,90,0.02,RA,,0.33,0.0,WeatherDisplay:10.37,2013-03-22 19:04:00,
2013-03-22 19:09:00,37.9,35.2,29.77,ENE,69,21.9,21.9,90,0.02,,,0.33,0.0,WeatherDisplay:10.37,2013-03-22 19:09:00,
2013-03-22 19:14:00,37.9,35.2,29.77,ENE,69,15.0,15.0,90,0.02,CLR,,0.33,0.0,WeatherDisplay:10.37,2013-03-22 19:14:00,
2013-03-22 19:19:00,37.9,35.2,29.77,ENE,75,11.0,11.0,90,0.02,CLR,,0.33,0.0,WeatherDisplay:10.37,2013-03-22 19:19:00,
2013-03-22 19:24:00,37.9,35.2,29.77,ENE,73,19.6,19.6,90,0.02,CLR,,0.33,0.0,WeatherDisplay:10.37,2013-03-22 19:24:00,
2013-03-22 19:29:00,37.8,35.1,29.77,ENE,78,11.5,11.5,90,0.02,CLR,,0.33,0.0,WeatherDisplay:10.37,2013-03-22 19:29:00,
2013-03-22 19:34:00,37.8,35.1,29.77,East,80,15.0,15.0,90,0.02,CLR,,0.33,0.0,WeatherDisplay:10.37,2013-03-22 19:34:00,
2013-03-22 19:39:00,37.8,35.1,29.77,ENE,78,19.6,19.6,90,0.02,RA,,0.34,0.0,WeatherDisplay:10.37,2013-03-22 19:39:00,
2013-03-22 19:44:00,37.8,35.4,29.77,East,92,11.5,11.5,91,0.02,RA,,0.34,0.0,WeatherDisplay:10.37,2013-03-22 19:44:00,
2013-03-22 19:49:00,37.8,35.4,29.77,East,92,17.0,17.0,91,0.02,,,0.34,0.0,WeatherDisplay:10.37,2013-03-22 19:49:00,
2013-03-22 19:54:00,37.8,35.4,29.77,ENE,73,11.0,11.0,91,0.02,CLR,,0.34,0.0,WeatherDisplay:10.37,2013-03-22 19:54:00,
2013-03-22 19:59:00,37.8,35.4,29.77,East,82,17.3,17.3,91,0.02,RA,,0.35,0.0,WeatherDisplay:10.37,2013-03-22 19:59:00,
2013-03-22 20:04:00,37.8,35.4,29.78,East,84,11.5,11.5,91,0.02,RA,,0.35,0.0,WeatherDisplay:10.37,2013-03-22 20:04:00,
2013-03-22 20:09:00,37.9,35.5,29.78,ENE,74,10.4,10.4,91,0.02,CLR,,0.35,0.0,WeatherDisplay:10.37,2013-03-22 20:09:00,
2013-03-22 20:14:00,37.9,35.5,29.77,East,80,10.4,10.4,91,0.02,CLR,,0.35,0.0,WeatherDisplay:10.37,2013-03-22 20:14:00,
2013-03-22 20:19:00,37.9,35.5,29.78,East,88,15.0,15.0,91,0.02,CLR,,0.35,0.0,WeatherDisplay:10.37,2013-03-22 20:19:00,
2013-03-22 20:24:00,38.0,35.6,29.78,East,82,10.4,10.4,91,0.02,CLR,,0.35,0.0,WeatherDisplay:10.37,2013-03-22 20:24:00,
2013-03-22 20:29:00,38.0,35.6,29.77,East,90,25.3,25.3,91,0.02,CLR,,0.35,0.0,WeatherDisplay:10.37,2013-03-22 20:29:00,
2013-03-22 20:34:00,38.1,35.7,29.77,ENE,76,12.7,12.7,91,0.02,CLR,,0.35,0.0,WeatherDisplay:10.37,2013-03-22 20:34:00,
2013-03-22 20:39:00,38.1,35.7,29.77,North,355,17.3,17.3,91,0.01,CLR,,0.35,0.0,WeatherDisplay:10.37,2013-03-22 20:39:00,
2013-03-22 20:44:00,38.1,35.7,29.77,ENE,69,15.0,15.0,91,0.01,CLR,,0.35,0.0,WeatherDisplay:10.37,2013-03-22 20:44:00,
2013-03-22 20:49:00,38.1,35.7,29.77,East,90,12.7,12.7,91,0.01,CLR,,0.35,0.0,WeatherDisplay:10.37,2013-03-22 20:49:00,
2013-03-22 20:54:00,38.1,35.7,29.77,East,86,15.0,15.0,91,0.01,CLR,,0.35,0.0,WeatherDisplay:10.37,2013-03-22 20:54:00,
2013-03-22 20:59:00,38.1,35.7,29.77,East,98,19.6,19.6,91,0.00,CLR,,0.35,0.0,WeatherDisplay:10.37,2013-03-22 20:59:00,
2013-03-22 21:04:00,38.1,35.7,29.77,ENE,68,15.0,15.0,91,0.00,CLR,,0.35,0.0,WeatherDisplay:10.37,2013-03-22 21:04:00,
2013-03-22 21:09:00,38.1,35.7,29.77,ENE,68,10.4,10.4,91,0.00,CLR,,0.35,0.0,WeatherDisplay:10.37,2013-03-22 21:09:00,
2013-03-22 21:14:00,38.0,35.6,29.77,East,84,12.7,12.7,91,0.01,RA,,0.35,0.0,WeatherDisplay:10.37,2013-03-22 21:14:00,
2013-03-22 21:19:00,38.0,35.6,29.77,ENE,76,19.6,19.6,91,0.01,RA,,0.35,0.0,WeatherDisplay:10.37,2013-03-22 21:19:00,
2013-03-22 21:24:00,38.0,35.9,29.77,ENE,71,15.0,15.0,92,0.01,CLR,,0.35,0.0,WeatherDisplay:10.37,2013-03-22 21:24:00,
2013-03-22 21:29:00,38.0,35.9,29.76,ENE,76,16.1,16.1,92,0.01,CLR,,0.35,0.0,WeatherDisplay:10.37,2013-03-22 21:29:00,
2013-03-22 21:34:00,37.9,35.8,29.76,ENE,69,11.0,11.0,92,0.02,RA,,0.36,0.0,WeatherDisplay:10.37,2013-03-22 21:34:00,
2013-03-22 21:39:00,37.9,35.8,29.76,ENE,72,16.1,16.1,92,0.02,RA,,0.36,0.0,WeatherDisplay:10.37,2013-03-22 21:39:00,
2013-03-22 21:44:00,37.8,35.7,29.76,ESE,104,6.9,6.9,92,0.02,CLR,,0.36,0.0,WeatherDisplay:10.37,2013-03-22 21:44:00,
2013-03-22 21:49:00,37.8,35.7,29.76,NE,53,13.8,13.8,92,0.02,RA,,0.37,0.0,WeatherDisplay:10.37,2013-03-22 21:49:00,
2013-03-22 21:54:00,37.8,35.7,29.76,East,85,16.0,16.0,92,0.02,RA,,0.37,0.0,WeatherDisplay:10.37,2013-03-22 21:54:00,
2013-03-22 21:59:00,37.7,35.9,29.76,East,80,15.0,15.0,93,0.02,RA,,0.37,0.0,WeatherDisplay:10.37,2013-03-22 21:59:00,
2013-03-22 22:04:00,37.7,35.9,29.76,ENE,73,10.4,10.4,93,0.02,CLR,,0.37,0.0,WeatherDisplay:10.37,2013-03-22 22:04:00,
2013-03-22 22:09:00,37.7,35.9,29.76,ENE,76,11.5,11.5,93,0.03,RA,,0.38,0.0,WeatherDisplay:10.37,2013-03-22 22:09:00,
2013-03-22 22:14:00,37.7,35.9,29.76,East,95,14.0,14.0,93,0.02,RA,,0.38,0.0,WeatherDisplay:10.37,2013-03-22 22:14:00,
2013-03-22 22:19:00,37.6,35.8,29.76,East,95,12.0,12.0,93,0.02,CLR,,0.38,0.0,WeatherDisplay:10.37,2013-03-22 22:19:00,
2013-03-22 22:24:00,37.6,35.8,29.76,ENE,67,16.1,16.1,93,0.02,CLR,,0.38,0.0,WeatherDisplay:10.37,2013-03-22 22:24:00,
2013-03-22 22:29:00,37.6,35.8,29.77,East,98,14.0,14.0,93,0.02,CLR,,0.38,0.0,WeatherDisplay:10.37,2013-03-22 22:29:00,
2013-03-22 22:34:00,37.6,35.8,29.77,East,101,17.3,17.3,93,0.02,CLR,,0.38,0.0,WeatherDisplay:10.37,2013-03-22 22:34:00,
2013-03-22 22:39:00,37.6,35.8,29.76,ESE,112,18.4,18.4,93,0.02,CLR,,0.38,0.0,WeatherDisplay:10.37,2013-03-22 22:39:00,
2013-03-22 22:44:00,37.5,35.7,29.76,East,84,13.8,13.8,93,0.02,CLR,,0.38,0.0,WeatherDisplay:10.37,2013-03-22 22:44:00,
2013-03-22 22:49:00,37.5,35.7,29.76,East,84,16.1,16.1,93,0.01,CLR,,0.38,0.0,WeatherDisplay:10.37,2013-03-22 22:49:00,
2013-03-22 22:54:00,37.5,35.7,29.77,ESE,102,20.7,20.7,93,0.01,CLR,,0.38,0.0,WeatherDisplay:10.37,2013-03-22 22:54:00,
2013-03-22 22:59:00,37.4,35.6,29.76,East,90,15.0,15.0,93,0.01,CLR,,0.38,0.0,WeatherDisplay:10.37,2013-03-22 22:59:00,
2013-03-22 23:04:00,37.4,35.6,29.76,NE,46,19.6,19.6,93,0.01,CLR,,0.38,0.0,WeatherDisplay:10.37,2013-03-22 23:04:00,
2013-03-22 23:09:00,37.4,35.6,29.76,ESE,105,18.4,18.4,93,0.00,CLR,,0.38,0.0,WeatherDisplay:10.37,2013-03-22 23:09:00,
2013-03-22 23:14:00,37.3,35.5,29.77,ENE,65,11.5,11.5,93,0.00,CLR,,0.38,0.0,WeatherDisplay:10.37,2013-03-22 23:14:00,
2013-03-22 23:19:00,37.3,35.5,29.77,East,92,15.0,15.0,93,0.00,CLR,,0.38,0.0,WeatherDisplay:10.37,2013-03-22 23:19:00,
2013-03-22 23:24:00,37.2,35.4,29.77,NNE,23,10.4,10.4,93,0.00,CLR,,0.38,0.0,WeatherDisplay:10.37,2013-03-22 23:24:00,
2013-03-22 23:29:00,37.2,35.4,29.76,East,86,11.5,11.5,93,0.00,CLR,,0.38,0.0,WeatherDisplay:10.37,2013-03-22 23:29:00,
2013-03-22 23:34:00,37.1,35.3,29.77,NE,52,11.5,11.5,93,0.01,RA,,0.39,0.0,WeatherDisplay:10.37,2013-03-22 23:34:00,
2013-03-22 23:39:00,37.1,35.3,29.77,East,87,10.4,10.4,93,0.01,RA,,0.39,0.0,WeatherDisplay:10.37,2013-03-22 23:39:00,
2013-03-22 23:44:00,37.1,35.3,29.77,East,97,12.7,12.7,93,0.01,,,0.39,0.0,WeatherDisplay:10.37,2013-03-22 23:44:00,
2013-03-22 23:49:00,37.1,35.3,29.77,East,79,13.8,13.8,93,0.01,CLR,,0.39,0.0,WeatherDisplay:10.37,2013-03-22 23:49:00,
2013-03-22 23:54:00,37.1,35.3,29.77,East,90,13.8,13.8,93,0.01,CLR,,0.39,0.0,WeatherDisplay:10.37,2013-03-22 23:54:00,
2013-03-22 23:59:00,37.0,35.2,29.77,ENE,74,17.3,17.3,93,0.01,CLR,,0.39,0.0,WeatherDisplay:10.37,2013-03-22 23:59:00,